YAOGAN-28

Last updated on Sat Aug 15 2026 00:02:45 GMT+0000 (Coordinated Universal Time)

1 41026U 15064A 26226.61518146 .00003634 00000+0 13527-3 0 9995 2 41026 97.3153 3.7398 0009962 352.9192 7.1905 15.28075637599605
UTC large
Height (km)
Speed (km/s)
/
Latitude / Longitude
Inclination (degrees)
Orbital Period (minutes)
Azimuth
Elevation
Range (km)
Doppler Factor

Next 0 passes for location: London (51.5072 / 0.1276)

No passes found over London.
YAOGAN-28